period_start,C,m1,H,J0,J1,J2,J3,J4,J5,JA,JB,JC,JD,JJ,JK,JN,#
2016-10-26 00:00:55,0.10,1.60,0.00,21.25,26.57,30.10,14.57,47.81,1017.59,2034.97,2862.14,2723.28,3088.15,599.38,599.75,19.78,0000 0000 0000 0000 000000
2016-10-26 00:05:56,0.32,1.61,0.00,21.26,26.57,30.15,14.78,47.75,1017.59,2034.96,2857.02,2719.74,3084.30,600.06,600.04,19.83,0000 0000 0000 0000 000000
2016-10-26 00:10:57,0.17,1.62,0.00,21.28,26.58,30.15,14.63,47.58,1017.59,2034.93,2853.29,2717.18,3081.43,599.54,600.06,19.89,0000 0000 0000 0000 000000
2016-10-26 00:15:59,0.17,1.63,0.00,21.30,26.60,30.13,14.73,47.97,1017.59,2034.89,2849.93,2714.94,3078.98,600.55,600.60,19.94,0000 0000 0000 0000 000000
2016-10-26 00:21:00,0.10,1.64,0.00,21.29,26.60,30.15,14.58,47.01,1017.61,2034.78,2847.25,2713.12,3077.10,599.46,599.50,19.99,0000 0000 0000 0000 000000
2016-10-26 00:26:01,0.04,1.64,0.00,21.31,26.62,30.15,14.81,47.81,1017.62,2034.79,2846.36,2712.64,3076.35,600.98,601.05,20.04,0000 0000 0000 0000 000000
2016-10-26 00:31:02,0.02,1.64,0.00,21.31,26.62,30.20,14.68,48.26,1017.75,2034.59,2845.60,2712.02,3075.99,599.36,599.38,20.09,0000 0000 0000 0000 000000
2016-10-26 00:36:04,-0.01,1.64,0.00,21.31,26.63,30.22,14.67,47.60,1018.02,2034.48,2845.02,2711.97,3075.36,599.66,599.86,20.14,0000 0000 0000 0000 000000
2016-10-26 00:41:05,0.07,1.65,0.00,21.33,26.65,30.21,14.74,46.89,1018.03,2034.55,2844.16,2711.21,3074.85,600.18,600.31,20.19,0000 0000 0000 0000 000000
2016-10-26 00:46:07,0.01,1.65,0.00,21.37,26.65,30.20,14.79,48.35,1018.06,2034.35,2843.37,2710.89,3074.09,600.86,600.98,20.24,0000 0000 0000 0000 000000
2016-10-26 00:51:08,0.04,1.65,0.00,21.39,26.66,30.25,14.74,48.64,1018.08,2034.05,2842.58,2710.08,3073.54,600.08,600.24,20.29,0000 0000 0000 0000 000000
2016-10-26 00:56:09,0.01,1.65,0.00,21.38,26.67,30.27,14.67,48.09,1018.08,2034.02,2842.01,2709.99,3073.02,599.72,599.95,20.34,0000 0000 0000 0000 000000
2016-10-26 01:01:10,0.04,1.65,0.00,21.42,26.68,30.31,14.73,48.19,1018.08,2034.01,2841.61,2709.59,3072.70,600.07,600.06,20.39,0000 0000 0000 0000 000000
2016-10-26 01:06:12,0.02,1.65,0.00,21.42,26.70,30.31,14.70,48.16,1018.08,2034.00,2840.98,2709.03,3072.03,600.01,600.05,20.44,0000 0000 0000 0000 000000
2016-10-26 01:11:13,0.03,1.65,0.00,21.47,26.70,30.31,14.70,47.92,1018.08,2034.00,2840.16,2708.91,3071.68,599.30,599.36,20.49,0000 0000 0000 0000 000000
2016-10-26 01:16:14,0.04,1.66,0.00,21.46,26.72,30.32,14.70,47.94,1018.08,2034.00,2839.88,2708.18,3071.03,599.97,600.00,20.54,0000 0000 0000 0000 000000
2016-10-26 01:21:15,0.02,1.66,0.00,21.50,26.73,30.33,14.69,47.87,1018.09,2034.00,2839.11,2707.97,3070.75,600.08,599.93,20.59,0000 0000 0000 0000 000000
2016-10-26 01:26:16,0.05,1.66,0.00,21.53,26.75,30.35,14.72,48.29,1018.10,2034.00,2838.37,2707.34,3070.04,600.79,600.52,20.64,0000 0000 0000 0000 000000
2016-10-26 01:31:17,0.02,1.66,0.00,21.53,26.75,30.37,14.58,48.01,1018.09,2034.00,2837.84,2706.99,3069.67,599.52,599.39,20.69,0000 0000 0000 0000 000000
2016-10-26 01:36:19,0.04,1.66,0.00,21.56,26.77,30.36,14.78,47.88,1018.10,2034.00,2837.05,2706.56,3069.02,599.50,599.31,20.74,0000 0000 0000 0000 000000
2016-10-26 01:41:20,0.02,1.66,0.00,21.53,26.79,30.40,14.75,47.27,1018.09,2033.98,2836.79,2706.05,3068.69,600.70,600.40,20.79,0000 0000 0000 0000 000000
2016-10-26 01:46:21,0.02,1.67,0.00,21.54,26.80,30.40,14.70,48.16,1018.10,2033.93,2836.03,2705.87,3068.02,599.89,599.71,20.84,0000 0000 0000 0000 000000
2016-10-26 01:51:23,0.03,1.67,0.00,21.61,26.82,30.42,14.72,47.12,1018.11,2033.94,2835.56,2705.24,3067.87,599.72,599.33,20.89,0000 0000 0000 0000 000000
2016-10-26 01:56:24,-0.00,1.67,0.00,21.62,26.82,30.42,14.80,47.87,1018.16,2033.78,2834.88,2705.00,3067.09,600.61,600.34,20.94,0000 0000 0000 0000 000000
2016-10-26 02:01:25,0.04,1.67,0.00,21.61,26.84,30.45,14.60,48.29,1018.24,2033.52,2834.05,2704.47,3066.68,599.82,599.65,20.99,0000 0000 0000 0000 000000
2016-10-26 02:06:27,-0.00,1.67,0.00,21.63,26.85,30.48,14.75,48.26,1018.41,2033.23,2833.23,2703.98,3066.01,600.35,600.18,21.04,0000 0000 0000 0000 000000
2016-10-26 02:11:28,0.06,1.67,0.00,21.61,26.86,30.47,14.74,47.83,1018.50,2033.08,2832.20,2703.29,3065.25,599.44,599.41,21.09,0000 0000 0000 0000 000000
2016-10-26 02:16:29,0.08,1.67,0.00,21.62,26.87,30.52,14.71,47.35,1018.53,2033.07,2830.97,2702.58,3064.47,600.51,600.49,21.14,0000 0000 0000 0000 000000
2016-10-26 02:21:30,0.18,1.68,0.00,21.68,26.89,30.52,14.64,46.98,1018.54,2033.02,2827.23,2700.48,3062.14,599.00,598.76,21.19,0000 0000 0000 0000 000000
2016-10-26 02:26:32,0.04,1.69,0.00,21.68,26.90,30.52,14.68,46.78,1018.54,2033.01,2825.81,2699.81,3061.06,600.02,599.86,21.24,0000 0000 0000 0000 000000
2016-10-26 02:31:32,0.11,1.69,0.00,21.68,26.92,30.56,14.70,47.40,1018.53,2033.00,2824.16,2698.51,3059.81,600.48,600.34,21.29,0000 0000 0000 0000 000000
2016-10-26 02:36:34,0.08,1.70,0.00,21.68,26.93,30.59,14.72,48.03,1018.43,2033.00,2822.59,2697.38,3058.49,600.31,600.08,21.34,0000 0000 0000 0000 000000
2016-10-26 02:41:35,0.04,1.70,0.00,21.65,26.95,30.61,14.65,46.89,1018.37,2033.00,2821.69,2696.83,3057.77,599.50,599.24,21.39,0000 0000 0000 0000 000000
2016-10-26 02:46:36,0.07,1.70,0.00,21.68,26.97,30.61,14.69,46.85,1018.31,2033.00,2820.57,2695.90,3056.70,600.15,599.95,21.44,0000 0000 0000 0000 000000
2016-10-26 02:51:37,0.09,1.71,0.00,21.71,26.97,30.61,14.69,48.39,1018.45,2032.98,2818.90,2694.78,3055.55,600.53,600.27,21.49,0000 0000 0000 0000 000000
2016-10-26 02:56:39,0.11,1.71,0.00,21.68,27.00,30.62,14.73,47.88,1018.54,2032.93,2816.98,2693.52,3053.95,599.71,599.57,21.54,0000 0000 0000 0000 000000
2016-10-26 03:01:40,0.25,1.72,0.00,21.73,27.00,30.64,14.70,47.07,1018.57,2032.93,2813.18,2690.95,3051.13,599.92,599.63,21.59,0000 0000 0000 0000 000000
2016-10-26 03:06:42,0.47,1.74,0.00,21.75,27.02,30.64,14.68,46.88,1018.57,2032.94,2805.27,2686.37,3045.95,600.25,600.06,21.64,0000 0000 0000 0000 000000
2016-10-26 03:11:43,0.34,1.76,0.00,21.77,27.02,30.66,14.75,48.68,1018.57,2032.73,2795.49,2681.47,3040.56,600.77,600.44,21.69,0000 0000 0000 0000 000000
2016-10-26 03:16:45,0.08,1.77,0.00,21.77,27.03,30.68,14.64,48.31,1018.57,2032.35,2792.10,2679.97,3038.63,599.58,599.29,21.74,0000 0000 0000 0000 000000
2016-10-26 03:21:46,0.31,1.78,0.00,21.79,27.05,30.69,14.72,48.20,1018.57,2032.10,2788.48,2677.33,3035.88,600.43,600.07,21.79,0000 0000 0000 0000 000000
2016-10-26 03:26:47,0.29,1.80,0.00,21.78,27.05,30.72,14.65,47.84,1018.61,2032.04,2781.58,2672.71,3030.72,600.08,599.74,21.84,0000 0000 0000 0000 000000
2016-10-26 03:31:49,0.09,1.81,0.00,21.74,27.06,30.70,14.70,47.74,1018.67,2032.02,2779.46,2671.37,3029.15,600.71,600.51,21.89,0000 0000 0000 0000 000000
2016-10-26 03:36:50,0.04,1.81,0.00,21.74,27.07,30.73,14.69,47.92,1018.80,2032.02,2778.30,2670.86,3028.35,600.29,600.19,21.94,0000 0000 0000 0000 000000
2016-10-26 03:41:51,0.04,1.81,0.00,21.76,27.07,30.70,14.64,47.33,1018.98,2032.01,2777.69,2670.06,3027.88,599.85,599.80,21.99,0000 0000 0000 0000 000000
2016-10-26 03:46:53,0.05,1.81,0.00,21.78,27.10,30.72,14.73,48.46,1019.01,2032.01,2776.69,2669.60,3027.07,601.02,600.68,22.04,0000 0000 0000 0000 000000
2016-10-26 03:51:54,0.03,1.82,0.00,21.76,27.10,30.72,14.69,47.94,1019.00,2032.00,2775.97,2669.02,3026.52,599.69,599.64,22.09,0000 0000 0000 0000 000000
2016-10-26 03:56:55,0.04,1.82,0.00,21.74,27.10,30.69,14.76,47.67,1019.05,2032.00,2775.14,2668.64,3025.99,599.83,599.79,22.14,0000 0000 0000 0000 000000
2016-10-26 04:01:56,0.05,1.82,0.00,21.77,27.12,30.70,14.64,47.82,1019.06,2032.00,2774.41,2668.03,3025.23,599.44,599.33,22.19,0000 0000 0000 0000 000000
2016-10-26 04:06:57,0.07,1.82,0.00,21.79,27.12,30.70,14.71,48.08,1019.06,2032.00,2773.20,2667.27,3024.39,600.15,600.02,22.24,0000 0000 0000 0000 000000
2016-10-26 04:11:59,0.08,1.83,0.00,21.79,27.12,30.74,14.73,47.24,1019.06,2032.00,2771.86,2666.26,3023.23,600.72,600.58,22.29,0000 0000 0000 0000 000000
2016-10-26 04:17:00,0.08,1.83,0.00,21.81,27.13,30.74,14.76,47.51,1019.06,2031.99,2770.14,2665.10,3022.02,599.67,599.70,22.34,0000 0000 0000 0000 000000
2016-10-26 04:22:01,0.06,1.84,0.00,21.81,27.15,30.73,14.74,47.69,1019.07,2031.98,2769.17,2664.47,3021.13,599.78,599.61,22.39,0000 0000 0000 0000 000000
2016-10-26 04:27:02,0.06,1.84,0.00,21.81,27.15,30.71,14.68,47.46,1019.07,2031.98,2768.33,2663.69,3020.41,599.88,599.66,22.44,0000 0000 0000 0000 000000
2016-10-26 04:32:04,0.04,1.84,0.00,21.87,27.15,30.71,14.71,46.85,1019.07,2031.97,2767.29,2663.04,3019.65,600.32,600.08,22.49,0000 0000 0000 0000 000000
2016-10-26 04:37:05,0.05,1.84,0.00,21.88,27.17,30.70,14.66,48.47,1019.07,2031.95,2766.30,2662.40,3018.98,600.49,600.20,22.54,0000 0000 0000 0000 000000
2016-10-26 04:42:06,0.03,1.85,0.00,21.85,27.17,30.65,14.55,47.75,1019.07,2031.90,2765.62,2662.00,3018.15,599.48,599.42,22.59,0000 0000 0000 0000 000000
2016-10-26 04:47:07,0.04,1.85,0.00,21.87,27.17,30.66,14.72,47.63,1019.08,2031.95,2764.88,2661.62,3017.86,600.14,599.92,22.64,0000 0000 0000 0000 000000
2016-10-26 04:52:08,0.04,1.85,0.00,21.88,27.17,30.65,14.70,47.61,1019.19,2031.95,2764.06,2661.01,3017.06,599.67,599.34,22.69,0000 0000 0000 0000 000000
2016-10-26 04:57:09,0.06,1.85,0.00,21.85,27.18,30.67,14.73,46.66,1019.25,2031.94,2763.08,2660.44,3016.39,599.94,599.79,22.74,0000 0000 0000 0000 000000
2016-10-26 05:02:10,0.15,1.86,0.00,21.81,27.20,30.69,14.76,46.73,1019.43,2031.93,2760.36,2658.95,3014.74,600.37,600.47,22.79,0000 0000 0000 0000 000000
2016-10-26 05:07:12,0.25,1.87,0.00,21.81,27.20,30.74,14.75,48.23,1019.53,2031.71,2755.00,2656.35,3011.78,600.80,601.17,22.84,0000 0000 0000 0000 000000
2016-10-26 05:12:13,0.31,1.88,0.00,21.82,27.20,30.72,14.66,48.35,1019.53,2031.30,2748.41,2653.02,3008.23,599.95,600.08,22.89,0000 0000 0000 0000 000000
2016-10-26 05:17:14,0.24,1.90,0.00,21.83,27.20,30.73,14.75,47.41,1019.53,2031.35,2742.01,2650.01,3004.95,599.58,599.70,22.94,0000 0000 0000 0000 000000
2016-10-26 05:22:16,0.13,1.91,0.00,21.83,27.21,30.71,14.68,47.87,1019.55,2031.54,2739.00,2648.59,3003.23,600.20,600.25,23.00,0000 0000 0000 0000 000000
2016-10-26 05:27:17,0.08,1.91,0.00,21.84,27.22,30.70,14.75,48.52,1019.54,2031.15,2736.71,2647.26,3001.98,600.10,600.35,23.05,0000 0000 0000 0000 000000
2016-10-26 05:32:18,0.03,1.91,0.00,21.82,27.22,30.66,14.69,48.08,1019.54,2031.06,2735.72,2646.82,3001.09,599.77,599.92,23.10,0000 0000 0000 0000 000000
2016-10-26 05:37:19,0.06,1.92,0.00,21.84,27.22,30.69,14.67,47.13,1019.55,2031.08,2734.72,2646.05,3000.42,599.75,599.85,23.15,0000 0000 0000 0000 000000
2016-10-26 05:42:20,0.21,1.93,0.00,21.88,27.22,30.69,14.62,46.83,1019.55,2031.16,2730.84,2644.30,2998.33,599.87,599.89,23.20,0000 0000 0000 0000 000000
2016-10-26 05:47:22,0.14,1.93,0.00,21.84,27.22,30.71,14.81,47.23,1019.55,2031.10,2727.57,2642.74,2996.55,601.17,601.18,23.25,0000 0000 0000 0000 000000
2016-10-26 05:52:23,0.05,1.94,0.00,21.82,27.22,30.68,14.64,48.10,1019.55,2031.06,2726.07,2641.98,2995.66,599.17,599.32,23.30,0000 0000 0000 0000 000000
2016-10-26 05:57:25,0.06,1.94,0.00,21.79,27.22,30.68,14.85,47.07,1019.55,2031.04,2725.07,2641.34,2994.87,601.49,601.70,23.35,0000 0000 0000 0000 000000
2016-10-26 06:02:26,0.26,1.95,0.00,21.82,27.22,30.69,14.73,48.37,1019.56,2031.02,2720.83,2639.24,2992.51,599.76,600.01,23.40,0000 0000 0000 0000 000000
2016-10-26 06:07:27,0.29,1.96,0.00,21.82,27.22,30.70,14.73,48.05,1019.56,2031.02,2714.86,2636.26,2989.18,600.31,600.19,23.45,0000 0000 0000 0000 000000
2016-10-26 06:12:28,0.09,1.97,0.00,21.80,27.22,30.68,14.68,47.43,1019.57,2031.03,2711.80,2634.86,2987.36,599.18,599.38,23.50,0000 0000 0000 0000 000000
2016-10-26 06:17:30,0.13,1.98,0.00,21.83,27.22,30.68,14.65,48.14,1019.56,2031.03,2709.46,2633.57,2986.04,599.88,600.07,23.55,0000 0000 0000 0000 000000
2016-10-26 06:22:31,0.74,2.00,0.00,21.82,27.22,30.65,14.66,46.82,1019.58,2031.01,2698.08,2627.84,2979.60,599.35,599.48,23.60,0000 0000 0000 0000 000000
2016-10-26 06:27:32,0.92,2.04,0.00,21.80,27.22,30.68,14.72,47.31,1019.69,2031.01,2679.44,2618.62,2969.10,600.78,601.06,23.65,0000 0000 0000 0000 000000
2016-10-26 06:32:34,1.13,2.10,0.00,21.83,27.22,30.67,14.78,48.67,1019.82,2031.00,2657.56,2607.49,2956.84,600.17,600.46,23.70,0000 0000 0000 0000 000000
2016-10-26 06:37:35,1.07,2.15,0.00,21.82,27.22,30.66,14.62,47.05,1019.96,2031.00,2636.56,2596.97,2945.13,599.30,599.69,23.75,0000 0000 0000 0000 000000
2016-10-26 06:42:36,0.51,2.19,0.00,21.79,27.22,30.67,14.67,46.83,1019.99,2031.02,2623.06,2590.22,2937.67,600.15,600.61,23.80,0000 0000 0000 0000 000000
2016-10-26 06:47:37,0.45,2.22,0.00,21.79,27.22,30.76,14.69,46.85,1020.01,2031.00,2613.92,2585.53,2932.48,599.99,600.46,23.85,0000 0000 0000 0000 000000
2016-10-26 06:52:38,0.13,2.23,0.00,21.81,27.22,30.75,14.69,46.83,1020.02,2031.00,2610.04,2583.60,2930.19,599.89,600.34,23.90,0000 0000 0000 0000 000000
2016-10-26 06:57:39,0.12,2.23,0.17,21.79,27.22,30.74,14.63,46.81,1020.03,2031.01,2607.97,2582.52,2928.91,599.98,600.46,23.95,0000 0000 0000 0000 000000
2016-10-26 07:02:41,0.25,2.24,1.00,21.78,27.22,30.72,14.74,47.91,1020.04,2031.00,2603.64,2580.21,2926.55,600.07,600.79,24.00,0000 0000 0000 0000 000000
2016-10-26 07:07:42,0.74,2.28,1.00,21.78,27.22,30.67,14.70,47.77,1020.05,2031.00,2590.34,2573.28,2918.65,599.19,599.71,24.05,0000 0000 0000 0000 000000
2016-10-26 07:12:43,0.09,2.29,1.00,21.78,27.22,30.63,14.65,46.80,1020.06,2031.00,2586.97,2571.35,2916.62,600.12,600.61,24.10,0000 0000 0000 0000 000000
2016-10-26 07:17:44,0.06,2.29,1.00,21.74,27.22,30.66,14.70,46.73,1020.05,2031.00,2585.74,2570.76,2915.78,600.12,600.73,24.15,0000 0000 0000 0000 000000
2016-10-26 07:22:46,0.71,2.31,1.00,21.78,27.22,30.67,14.76,47.55,1020.05,2031.00,2577.02,2565.95,2910.47,600.69,601.22,24.20,0000 0000 0000 0000 000000
2016-10-26 07:27:47,0.86,2.36,0.80,21.78,27.22,30.62,14.70,48.24,1020.05,2031.00,2559.37,2557.00,2900.29,599.19,599.56,24.25,0000 0000 0000 0000 000000
2016-10-26 07:32:48,0.61,2.39,0.00,21.78,27.22,30.65,14.76,48.43,1020.05,2031.00,2547.32,2550.87,2893.40,600.87,601.57,24.30,0000 0000 0000 0000 000000
2016-10-26 07:37:49,0.68,2.43,0.00,21.75,27.22,30.62,14.68,46.67,1020.10,2031.00,2534.11,2544.20,2885.96,599.35,599.92,24.35,0000 0000 0000 0000 000000
2016-10-26 07:42:50,1.35,2.48,0.00,21.74,27.22,30.63,14.65,46.71,1020.18,2031.00,2512.42,2533.31,2874.02,599.85,600.53,24.40,0000 0000 0000 0000 000000
2016-10-26 07:47:51,0.82,2.54,0.00,21.75,27.22,30.64,14.71,46.72,1020.39,2031.00,2493.36,2523.32,2863.10,600.08,600.86,24.45,0000 0000 0000 0000 000000
2016-10-26 07:52:53,0.17,2.55,0.00,21.74,27.22,30.67,14.66,46.78,1020.46,2031.00,2489.11,2521.20,2860.62,599.82,600.69,24.50,0000 0000 0000 0000 000000
2016-10-26 07:57:54,0.10,2.56,0.23,21.76,27.22,30.66,14.74,46.79,1020.51,2031.00,2486.34,2520.03,2859.12,600.19,601.01,24.55,0000 0000 0000 0000 000000
2016-10-26 08:02:55,0.05,2.56,1.00,21.77,27.22,30.66,14.69,46.69,1020.52,2031.00,2485.59,2519.66,2858.77,599.97,600.77,24.60,0000 0000 0000 0000 000000
2016-10-26 08:07:56,0.05,2.57,1.00,21.76,27.22,30.66,14.73,46.78,1020.52,2031.00,2484.62,2519.06,2858.06,600.27,601.09,24.65,0000 0000 0000 0000 000000
2016-10-26 08:12:57,0.03,2.57,1.00,21.73,27.22,30.62,14.70,46.77,1020.52,2031.00,2483.91,2518.84,2857.48,600.05,600.91,24.70,0000 0000 0000 0000 000000
2016-10-26 08:17:59,0.05,2.57,1.00,21.73,27.22,30.64,14.68,46.77,1020.53,2031.00,2483.08,2518.13,2857.01,599.77,600.71,24.75,0000 0000 0000 0000 000000
2016-10-26 08:23:00,0.00,2.57,1.00,21.71,27.22,30.60,14.79,46.83,1020.55,2031.00,2482.84,2518.00,2856.93,600.36,601.24,24.80,0000 0000 0000 0000 000000
2016-10-26 08:28:01,0.07,2.57,0.73,21.70,27.22,30.62,14.68,46.80,1020.53,2031.00,2481.86,2517.61,2856.13,600.00,600.98,24.85,0000 0000 0000 0000 000000
2016-10-26 08:33:02,0.03,2.58,0.00,21.74,27.22,30.64,14.63,46.82,1020.55,2030.99,2481.02,2517.01,2855.52,599.72,600.52,24.90,0000 0000 0000 0000 000000
2016-10-26 08:38:03,0.01,2.58,0.00,21.73,27.22,30.56,14.75,48.14,1020.60,2030.99,2480.73,2517.00,2855.04,600.66,601.61,24.95,0000 0000 0000 0000 000000
2016-10-26 08:43:05,0.01,2.58,0.00,21.70,27.20,30.65,14.61,47.82,1020.88,2030.99,2480.05,2516.95,2854.99,599.66,600.85,25.00,0000 0000 0000 0000 000000
2016-10-26 08:48:06,0.00,2.58,0.00,21.72,27.20,30.61,14.74,46.83,1020.97,2030.99,2480.00,2516.90,2854.97,600.15,601.15,25.05,0000 0000 0000 0000 000000
2016-10-26 08:53:07,0.03,2.58,0.00,21.73,27.20,30.63,14.63,46.83,1020.97,2030.99,2479.81,2516.62,2854.72,599.99,601.21,25.10,0000 0000 0000 0000 000000
2016-10-26 08:58:08,0.03,2.58,0.00,21.71,27.20,30.61,14.70,46.77,1021.01,2030.99,2479.14,2516.31,2854.14,600.08,601.30,25.15,0000 0000 0000 0000 000000
2016-10-26 09:03:09,0.01,2.58,0.00,21.70,27.20,30.64,14.66,46.77,1021.01,2030.99,2479.00,2516.04,2854.01,599.84,601.15,25.20,0000 0000 0000 0000 000000
2016-10-26 09:08:11,0.00,2.58,0.00,21.73,27.20,30.66,14.73,46.78,1021.01,2030.99,2478.93,2516.00,2854.00,599.96,601.23,25.25,0000 0000 0000 0000 000000
2016-10-26 09:13:12,0.02,2.58,0.00,21.78,27.20,30.62,14.83,47.60,1021.04,2030.99,2478.40,2516.00,2853.98,600.78,602.02,25.30,0000 0000 0000 0000 000000
2016-10-26 09:18:14,0.01,2.59,0.00,21.73,27.20,30.62,14.83,48.67,1021.12,2030.99,2478.01,2516.00,2853.66,600.41,601.55,25.35,0000 0000 0000 0000 000000
2016-10-26 09:23:15,0.00,2.59,0.00,21.73,27.20,30.55,14.57,47.21,1021.29,2030.99,2477.99,2515.98,2853.12,598.84,600.25,25.40,0000 0000 0000 0000 000000
2016-10-26 09:28:16,0.01,2.59,0.00,21.76,27.20,30.58,14.73,46.73,1021.43,2030.99,2477.74,2515.97,2853.01,599.94,601.25,25.45,0000 0000 0000 0000 000000
2016-10-26 09:33:17,0.01,2.59,0.00,21.77,27.20,30.53,14.67,46.73,1021.46,2030.99,2477.08,2515.86,2852.99,599.93,601.35,25.50,0000 0000 0000 0000 000000
2016-10-26 09:38:19,0.03,2.59,0.00,21.76,27.20,30.60,14.72,48.62,1021.48,2030.98,2476.98,2515.23,2852.90,600.39,601.88,25.55,0000 0000 0000 0000 000000
2016-10-26 09:43:20,0.02,2.59,0.00,21.74,27.19,30.57,14.70,48.17,1021.49,2030.99,2476.69,2515.04,2852.49,599.55,601.00,25.60,0000 0000 0000 0000 000000
2016-10-26 09:48:22,0.02,2.59,0.00,21.76,27.19,30.64,14.73,46.68,1021.50,2030.99,2476.12,2515.01,2852.07,599.61,601.01,25.65,0000 0000 0000 0000 000000
2016-10-26 09:53:23,0.04,2.59,0.00,21.73,27.19,30.59,14.72,46.54,1021.50,2030.99,2475.35,2514.76,2851.74,600.08,601.56,25.70,0000 0000 0000 0000 000000
2016-10-26 09:58:24,0.04,2.60,0.00,21.69,27.19,30.57,14.75,46.58,1021.50,2030.99,2474.77,2514.06,2851.02,600.16,601.74,25.75,0000 0000 0000 0000 000000
2016-10-26 10:03:26,0.07,2.60,0.00,21.66,27.19,30.61,14.82,47.74,1021.50,2030.99,2473.64,2513.69,2850.40,601.15,602.66,25.80,0000 0000 0000 0000 000000
2016-10-26 10:08:27,0.76,2.62,0.00,21.67,27.17,30.61,14.74,48.60,1021.49,2030.99,2463.76,2508.21,2844.29,599.85,601.45,25.85,0000 0000 0000 0000 000000
2016-10-26 10:13:28,0.33,2.65,0.00,21.70,27.17,30.59,14.74,48.24,1021.50,2030.99,2454.59,2503.37,2839.19,599.33,600.87,25.90,0000 0000 0000 0000 000000
2016-10-26 10:18:30,0.02,2.65,0.00,21.75,27.17,30.63,14.76,46.77,1021.50,2030.99,2453.73,2503.00,2838.58,600.11,601.63,25.95,0000 0000 0000 0000 000000
2016-10-26 10:23:31,0.02,2.66,0.00,21.70,27.17,30.61,14.71,46.83,1021.50,2030.99,2453.04,2503.00,2838.03,599.91,601.43,26.00,0000 0000 0000 0000 000000
2016-10-26 10:28:32,0.00,2.66,0.00,21.69,27.17,30.59,14.73,46.75,1021.50,2030.98,2452.97,2502.97,2838.00,599.87,601.42,26.05,0000 0000 0000 0000 000000
2016-10-26 10:33:33,0.03,2.66,0.00,21.67,27.17,30.62,14.71,47.91,1021.50,2030.98,2452.52,2502.82,2837.95,600.77,602.37,26.10,0000 0000 0000 0000 000000
2016-10-26 10:38:34,0.04,2.66,0.00,21.69,27.17,30.54,14.81,48.67,1021.51,2030.98,2452.01,2502.16,2837.36,600.23,601.89,26.15,0000 0000 0000 0000 000000
2016-10-26 10:43:36,0.00,2.66,0.00,21.68,27.15,30.58,14.68,48.33,1021.52,2030.99,2451.96,2502.03,2837.02,599.18,600.78,26.20,0000 0000 0000 0000 000000
2016-10-26 10:48:37,0.01,2.66,0.00,21.69,27.15,30.53,14.66,48.13,1021.76,2030.99,2451.47,2502.01,2837.00,599.55,601.31,26.25,0000 0000 0000 0000 000000
2016-10-26 10:53:38,0.00,2.66,0.00,21.68,27.15,30.53,14.71,47.79,1021.87,2030.99,2451.08,2502.02,2837.00,599.36,601.16,26.30,0000 0000 0000 0000 000000
2016-10-26 10:58:39,0.01,2.66,0.00,21.67,27.15,30.53,14.79,47.07,1021.89,2031.00,2450.83,2502.00,2836.88,599.59,601.41,26.35,0000 0000 0000 0000 000000
2016-10-26 11:03:41,0.03,2.66,0.00,21.65,27.14,30.54,14.75,46.92,1021.92,2031.00,2450.04,2501.96,2836.14,599.93,601.87,26.40,0000 0000 0000 0000 000000
2016-10-26 11:08:42,0.04,2.67,0.00,21.66,27.13,30.57,14.74,48.23,1021.94,2031.00,2449.58,2501.37,2836.00,600.20,601.98,26.45,0000 0000 0000 0000 000000
2016-10-26 11:13:43,0.03,2.67,0.00,21.63,27.12,30.62,14.65,48.20,1021.96,2031.00,2448.93,2501.01,2835.50,599.39,601.35,26.50,0000 0000 0000 0000 000000
2016-10-26 11:18:45,0.02,2.67,0.00,21.65,27.12,30.53,14.81,48.49,1021.98,2031.00,2448.13,2501.00,2835.02,600.12,602.00,26.55,0000 0000 0000 0000 000000
2016-10-26 11:23:46,0.00,2.67,0.00,21.61,27.12,30.51,14.74,48.23,1021.97,2031.00,2447.95,2500.96,2835.00,600.06,602.08,26.60,0000 0000 0000 0000 000000
2016-10-26 11:28:47,0.08,2.67,0.00,21.60,27.10,30.43,14.62,46.91,1021.97,2031.01,2446.97,2500.15,2834.29,599.67,601.68,26.66,0000 0000 0000 0000 000000
2016-10-26 11:33:49,0.03,2.68,0.00,21.62,27.10,30.48,14.79,46.91,1021.98,2031.02,2446.06,2500.00,2834.00,600.20,602.18,26.71,0000 0000 0000 0000 000000
2016-10-26 11:38:50,0.01,2.68,0.00,21.59,27.10,30.43,14.68,46.88,1021.99,2031.01,2445.63,2499.98,2833.90,599.72,601.95,26.76,0000 0000 0000 0000 000000
2016-10-26 11:43:51,0.07,2.68,0.00,21.57,27.10,30.47,14.79,48.02,1021.99,2031.00,2444.68,2499.32,2833.05,601.03,603.10,26.81,0000 0000 0000 0000 000000
2016-10-26 11:48:52,0.13,2.69,0.00,21.63,27.09,30.51,14.67,48.45,1021.99,2031.00,2442.30,2498.11,2831.89,599.89,601.77,26.86,0000 0000 0000 0000 000000
2016-10-26 11:53:53,0.03,2.69,0.00,21.61,27.07,30.47,14.71,47.93,1021.99,2031.00,2441.48,2497.98,2831.17,599.73,601.73,26.91,0000 0000 0000 0000 000000
2016-10-26 11:58:54,0.01,2.69,0.00,21.57,27.07,30.52,14.80,46.73,1021.99,2031.01,2441.00,2497.73,2831.00,600.34,602.44,26.96,0000 0000 0000 0000 000000
2016-10-26 12:03:55,0.06,2.69,0.00,21.53,27.07,30.48,14.66,46.69,1021.99,2031.02,2440.23,2497.13,2830.69,599.94,602.08,27.01,0000 0000 0000 0000 000000
2016-10-26 12:08:57,0.11,2.70,0.00,21.52,27.07,30.49,14.73,46.73,1022.02,2031.02,2438.22,2496.20,2829.46,599.88,602.22,27.06,0000 0000 0000 0000 000000
2016-10-26 12:13:58,0.03,2.70,0.00,21.56,27.07,30.50,14.73,46.92,1022.10,2031.02,2437.04,2495.95,2828.98,599.85,602.00,27.11,0000 0000 0000 0000 000000
2016-10-26 12:18:59,0.05,2.70,0.00,21.55,27.06,30.51,14.74,47.45,1022.13,2031.04,2436.27,2495.47,2828.37,600.34,602.44,27.16,0000 0000 0000 0000 000000
2016-10-26 12:24:00,0.05,2.70,0.00,21.57,27.05,30.43,14.81,48.78,1022.04,2031.01,2435.41,2495.03,2827.90,600.03,602.15,27.21,0000 0000 0000 0000 000000
2016-10-26 12:29:02,0.23,2.71,0.00,21.57,27.05,30.49,14.78,48.58,1022.03,2031.00,2432.33,2493.50,2825.98,600.02,602.04,27.26,0000 0000 0000 0000 000000
2016-10-26 12:34:03,0.18,2.72,0.00,21.57,27.04,30.39,14.70,47.92,1022.11,2031.03,2428.18,2491.44,2823.83,599.96,602.11,27.31,0000 0000 0000 0000 000000
2016-10-26 12:39:04,0.29,2.74,0.00,21.51,27.03,30.44,14.71,48.23,1022.11,2031.02,2423.76,2489.04,2821.07,599.85,602.13,27.36,0000 0000 0000 0000 000000
2016-10-26 12:44:05,0.38,2.76,0.00,21.52,27.02,30.43,14.81,48.17,1022.17,2031.05,2416.79,2485.53,2817.19,600.22,602.53,27.41,0000 0000 0000 0000 000000
2016-10-26 12:49:06,0.17,2.77,0.00,21.54,27.02,30.42,14.72,47.14,1022.14,2031.20,2413.21,2484.00,2815.19,599.51,601.69,27.46,0000 0000 0000 0000 000000
2016-10-26 12:54:07,0.06,2.77,0.00,21.56,27.02,30.50,14.80,46.97,1022.09,2031.36,2412.26,2483.33,2814.99,600.03,602.26,27.51,0000 0000 0000 0000 000000